sat.trackr.live / text

‹ back to catalog

STARLINK-11342 [DTC]

NORAD 61580 · 2024-187G

PAYLOAD ACTIVE UNKNOWN

§ Identity

Operator
Country
US
Launch date
2024-10-18
Launch site
AFETR
Launch vehicle
Mass (kg)
RCS (m²)

Purposes: comms

External: N2YO · Heavens-Above · Gunter

§ Orbital elements

Epoch: 2026-09-21T14:15:22.276512Z

Period
91.74 min
Inclination
53.1603°
Eccentricity
0.0001013
Mean motion
15.69705368 rev/d
Perigee alt
359.1 km
Apogee alt
360.4 km
Semi-major
6,737.9 km
B*
-5.0826e-7
RAAN
50.1976°
Arg perigee
81.6152°
Mean anomaly
278.4980°
Rev number
11,157

§ Raw data

STARLINK-11342 [DTC]1 61580U 24187G   26264.59400783 -.00000650  00000+0 -50826-6 0  99972 61580  53.1603  50.1976 0001013  81.6152 278.4980 15.69705368111579

JSON: /api/v1/satellites/61580 · /tle

For live sub-satellite position, see the globe view (requires WebGL).

§ Visibility from observer

Set your observer location to see the next 7 days of passes ≥ 10°. The values pass through the URL so the page stays shareable.

No JS? Fill the form by hand. The geolocation button needs JavaScript.